Location: Pabrico
(37.5827°N, 122.0063°W)
Time: 09:36:26
(UTC+00:00)

ARGOS - Pass Details

Date: 13 April 2024
Orbit: 818 x 834 km, 98.4° (Epoch: 23 May)

Event Time Altitude Azimuth Distance (km) Brightness Sun altitude
Rises 12:44:27 0° 19° (NNE) 3,366 7.0 -10.4°
Reaches altitude 10° 12:46:55 10° 26° (NNE) 2,427 6.3 -10.0°
Maximum altitude 12:52:04 45° 99° (E) 1,100 4.3 -9.0°
Drops below altitude 10° 12:57:09 10° 172° (S) 2,405 5.5 -8.1°
Sets 12:59:35 0° 178° (S) 3,332 6.1 -7.6°
